Weather observations for the past three days for
Claxton Evans County Airport
Imperial (Metric)
Date Time (edt) Wind (mph) Vis. (mi.) Weather Sky Cond. Temperature (ºF) Relative Humidity Wind Chill (°F) Heat Index (°F) Pressure Precipitation (in)
Air Dwpt 6 hour altimeter (in) sea level (mb) 1 hr 3 hr 6 hr
Max. Min.
10 11:15 Vrbl 2 10.00 A Few Clouds FEW018 77 66.2 69% 79 30.03 0.0
10 10:55 Vrbl 6 10.00 A Few Clouds FEW018 75.2 68 78% 76 30.03 0.0
10 10:35 Vrbl 2 10.00 A Few Clouds FEW016 73.4 68 83% 30.03 0.0
10 10:15 W 5 10.00 Partly Cloudy SCT014 71.6 68 88% 30.02 0.0
10 09:55 W 7 10.00 Partly Cloudy SCT014 71.6 68 88% 30.02 0.0
10 09:35 W 5 10.00 Fair CLR 71.6 68 88% 30.02 0.0
10 08:55 W 5 10.00 Fair CLR 69.8 68 94% 30.02 0.0
10 08:35 W 6 10.00 Partly Cloudy SCT002 68 68 100% 30.02 0.0
10 08:15 W 5 10.00 Partly Cloudy SCT002 68 68 100% 30.02 0.0
10 07:55 Vrbl 2 10.00 A Few Clouds FEW120 66.2 66.2 67.5 65.7 100% 30.02 0.0
10 07:35 NW 2 9.00 Mostly Cloudy BKN120 66.2 66.2 100% 30.01 0.0
10 07:15 Calm 8.00 Light Rain SCT050 SCT070 OVC110 66.2 66.2 100% 29.99 0.0
10 06:55 Vrbl 1 5.00 Fog/Mist SCT065 BKN075 OVC110 66.2 66.2 100% 30 0.0
10 06:35 Calm 9.00 Overcast FEW055 BKN065 OVC100 66.2 66.2 100% 29.99 0.0
10 06:15 NW 2 6.00 Fog/Mist BKN060 OVC100 66.2 66.2 100% 29.98 0.0
10 05:55 Calm 7.00 Fog/Mist OVC070 66.2 66.2 100% 29.98 0.0
10 05:35 W 2 10.00 Overcast OVC070 66.2 66.2 100% 29.98 0.0
10 05:15 W 2 10.00 Overcast OVC070 66.2 66.2 100% 29.98 0.0
10 04:55 Vrbl 2 10.00 Overcast OVC070 66.2 66.2 100% 29.97 0.0
10 04:35 Vrbl 5 8.00 Light Rain SCT002 OVC070 66.2 66.2 100% 29.96 0.0
10 04:15 Vrbl 1 9.00 Overcast SCT002 BKN055 OVC110 66.2 66.2 100% 29.95 0.0
10 03:55 Vrbl 2 9.00 Overcast SCT002 BKN070 OVC110 66.2 66.2 100% 29.95 0.0 0.01
10 03:35 Vrbl 2 9.00 Overcast SCT050 BKN075 OVC110 66.2 66.2 100% 29.95 0.0
10 03:15 Vrbl 3 6.00 Fog/Mist BKN120 66.2 66.2 100% 29.94 0.0
10 02:55 S 2 7.00 Fog/Mist SCT080 BKN110 66.2 66.2 100% 29.94 0.0 0.01
10 02:35 SW 3 6.00 Fog/Mist SCT080 BKN110 66.2 66.2 100% 29.95 0.0
10 02:15 Vrbl 2 6.00 Light Rain Fog/Mist FEW041 SCT070 BKN110 66.2 66.2 100% 29.93 0.0
10 01:55 NW 3 5.00 Light Rain Fog/Mist BKN036 BKN060 BKN075 68 68 69.3 66.6 100% 29.94 0.0
10 01:35 Calm 10.00 Overcast OVC038 68 68 100% 29.95 0.0
10 01:15 SW 2 10.00 Overcast OVC040 66.2 66.2 100% 29.97 0.0
10 00:55 Calm 10.00 Overcast OVC044 68 68 100% 29.96 0.0
10 00:35 SW 1 10.00 Overcast BKN044 OVC070 68 68 100% 29.97 0.0
10 00:15 W 3 10.00 Overcast SCT046 BKN070 OVC100 68 68 100% 29.97 0.0
09 23:55 W 3 10.00 Overcast OVC110 68 68 100% 29.96 0.0
09 23:15 SW 2 10.00 Overcast OVC100 66.2 66.2 100% 29.95 0.0
09 22:55 W 2 10.00 Mostly Cloudy BKN110 68 68 100% 29.95 0.0
09 22:35 Vrbl 3 10.00 A Few Clouds FEW100 FEW120 68 68 100% 29.95 0.0
09 22:15 Vrbl 2 10.00 Partly Cloudy SCT100 68 68 100% 29.95 0.0
09 21:55 SW 5 10.00 A Few Clouds FEW100 68 68 100% 29.94 0.0
09 21:35 SW 3 10.00 Fair CLR 68 68 100% 29.94 0.0
09 21:15 Vrbl 3 10.00 Fair CLR 68 68 100% 29.94 0.0
09 20:55 Vrbl 2 10.00 Fair CLR 68 68 100% 29.93 0.0
09 20:35 Vrbl 3 10.00 Fair CLR 68 68 100% 29.92 0.0
09 20:15 Vrbl 2 10.00 Fair CLR 68 68 100% 29.92 0.0
09 19:55 SW 2 10.00 Fair CLR 69.8 68 71.2 68.5 94% 29.91 0.0
09 19:35 Vrbl 3 10.00 Fair CLR 69.8 68 94% 29.9 0.0
09 19:15 Vrbl 6 10.00 A Few Clouds FEW012 69.8 68 94% 29.92 0.0
09 18:55 Vrbl 5 10.00 A Few Clouds FEW012 69.8 68 94% 29.91 0.0
09 18:35 Vrbl 6 10.00 Fair CLR 69.8 68 94% 29.9 0.0
09 18:15 Vrbl 2 10.00 Partly Cloudy SCT012 71.6 68 88% 29.89 0.0
09 17:55 Vrbl 2 10.00 Partly Cloudy SCT012 SCT120 71.6 68 88% 29.9 0.0
09 17:35 Vrbl 3 10.00 Partly Cloudy SCT120 71.6 69.8 94% 29.89 0.0
09 17:15 Vrbl 5 10.00 Partly Cloudy FEW011 FEW039 SCT120 69.8 68 94% 29.9 0.0
09 16:55 Vrbl 2 10.00 Light Rain FEW012 FEW037 FEW120 69.8 69.8 100% 29.91 0.0 0.01
09 16:35 Vrbl 2 10.00 Light Rain CLR 69.8 69.8 100% 29.9 0.0
09 16:15 Vrbl 3 10.00 Light Rain FEW014 69.8 69.8 100% 29.91 0.0
09 15:55 Vrbl 3 10.00 Light Rain SCT014 SCT020 71.6 68 88% 29.91 0.0
09 15:35 W 3 10.00 Light Rain SCT014 BKN020 71.6 69.8 94% 29.91 0.0
09 15:15 W 3 10.00 Partly Cloudy SCT021 69.8 68 94% 29.92 0.0
09 14:55 W 6 10.00 Partly Cloudy SCT019 69.8 68 94% 29.92 0.0 0.01
09 14:35 NW 10 10.00 Light Rain FEW010 BKN017 69.8 68 94% 29.94 0.0
09 14:15 NW 13 G 18 8.00 Light Rain SCT008 69.8 68 94% 29.94 0.0
09 13:55 S 9 G 20 7.00 Light Rain Fog/Mist CLR 68 68 75 63.7 100% 29.89 0.0 0.02
09 13:35 S 9 G 16 10.00 Light Rain CLR 69.8 68 94% 29.91 0.0
09 13:15 Vrbl 6 8.00 Light Rain FEW060 FEW085 69.8 69.8 100% 29.93 0.0
09 12:55 Vrbl 5 10.00 Light Rain FEW060 SCT100 69.8 68 94% 29.93 0.0 0.02
09 12:35 Vrbl 3 8.00 Light Rain FEW100 71.6 68 88% 29.93 0.0
09 12:15 Vrbl 5 9.00 Light Rain FEW100 71.6 68 88% 29.94 0.0
09 11:55 Vrbl 6 10.00 Light Rain FEW120 73.4 66.2 78% 29.94 0.0
09 11:35 W 5 10.00 Fair CLR 75.2 66.2 74% 77 29.94 0.0
09 11:15 Vrbl 6 10.00 Fair CLR 75.2 66.2 74% 77 29.94 0.0
09 10:55 Vrbl 6 10.00 Fair CLR 73.4 66.2 78% 29.95 0.0
09 10:35 Vrbl 5 10.00 Partly Cloudy SCT110 73.4 68 83% 29.95 0.0
09 10:15 Vrbl 3 10.00 Mostly Cloudy BKN110 69.8 68 94% 29.95 0.0
09 09:55 Vrbl 5 10.00 Mostly Cloudy BKN110 69.8 68 94% 29.95 0.0
09 09:35 Vrbl 3 10.00 Mostly Cloudy FEW004 SCT080 BKN110 68 68 100% 29.95 0.0
09 09:15 Vrbl 2 10.00 Overcast FEW002 BKN080 OVC100 68 68 100% 29.95 0.0
09 08:55 Calm 10.00 Overcast BKN002 OVC080 66.2 66.2 100% 29.94 0.0
09 08:35 Calm 10.00 Overcast OVC002 66.2 66.2 100% 29.95 0.0
09 08:15 N 2 8.00 Overcast OVC002 64.4 64.4 100% 29.94 0.0
09 07:55 Calm 2.50 Fog/Mist OVC002 64.4 64.4 64.2 62.8 100% 29.93 0.0
09 07:35 Vrbl 1 0.75 Fog/Mist OVC002 62.6 62.6 100% 29.93 0.0
09 07:15 S 1 0.15 Fog OVC002 62.6 62.6 100% 29.93 0.0
09 06:55 SE 1 0.15 Fog OVC002 62.6 62.6 100% 29.92 0.0
09 06:35 SE 1 0.15 Fog OVC002 62.6 62.6 100% 29.91 0.0
09 06:15 E 2 0.15 Fog OVC002 62.6 62.6 100% 29.9 0.0
09 05:55 Calm 0.15 Fog OVC002 64.4 64.4 100% 29.9 0.0
09 05:35 Vrbl 2 0.15 Fog OVC002 62.6 62.6 100% 29.89 0.0
09 05:15 SE 2 0.25 Fog OVC002 64.4 64.4 100% 29.89 0.0
09 04:55 E 2 2.50 Fog/Mist OVC002 64.4 64.4 100% 29.9 0.0
09 04:35 E 2 4.00 Fog/Mist OVC002 64.4 64.4 100% 29.9 0.0
09 03:55 NE 3 5.00 Fog/Mist OVC002 64.4 64.4 100% 29.89 0.0
09 03:35 E 1 5.00 Fog/Mist OVC004 64.4 64.4 100% 29.91 0.0
09 03:15 SE 2 8.00 Overcast OVC004 64.4 64.4 100% 29.93 0.0
09 02:55 NW 3 7.00 Fog/Mist SCT002 64.4 64.4 100% 29.93 0.0
09 02:35 Vrbl 2 7.00 A Few Clouds FEW002 FEW100 FEW120 62.6 62.6 100% 29.92 0.0
09 02:15 S 3 7.00 Fog/Mist CLR 64.4 64.4 100% 29.93 0.0
09 01:55 E 2 7.00 Fog/Mist SCT008 64.4 64.4 70.5 63.9 100% 29.93 0.0
09 01:35 NE 2 8.00 Mostly Cloudy BKN008 64.4 64.4 100% 29.94 0.0
09 01:15 Vrbl 1 10.00 Overcast OVC008 64.4 64.4 100% 29.96 0.0
09 00:55 NW 7 10.00 Overcast BKN008 BKN032 OVC060 64.4 64.4 100% 29.97 0.0
09 00:35 Vrbl 1 7.00 Light Rain SCT060 BKN075 OVC100 64.4 64.4 100% 29.96 0.0
09 00:15 NW 5 10.00 Overcast BKN075 BKN090 OVC110 64.4 64.4 100% 29.97 0.0
08 23:55 Vrbl 1 10.00 Overcast FEW050 BKN075 OVC090 64.4 64.4 100% 29.98 0.0 0.01
08 23:35 SE 5 10.00 Light Rain SCT060 BKN070 OVC100 64.4 64.4 100% 29.97 0.0
08 23:15 Vrbl 3 10.00 Light Rain SCT060 BKN070 OVC110 64.4 64.4 100% 29.98 0.0
08 22:55 SE 7 10.00 Overcast FEW060 BKN070 OVC100 64.4 64.4 100% 29.98 0.0
08 22:35 Vrbl 2 10.00 Overcast FEW038 BKN070 OVC100 64.4 64.4 100% 29.99 0.0
08 22:15 Vrbl 2 10.00 Light Rain SCT060 BKN075 BKN100 64.4 64.4 100% 29.99 0.0
08 21:55 Vrbl 2 10.00 Light Rain SCT055 BKN075 BKN100 66.2 64.4 94% 29.99 0.0 0.01
08 21:35 Vrbl 2 9.00 Light Rain FEW024 SCT075 BKN090 66.2 62.6 88% 30 0.0
08 21:15 S 5 10.00 Light Rain SCT065 BKN075 OVC100 68 60.8 78% 30.01 0.0
08 20:35 Vrbl 5 10.00 Mostly Cloudy SCT036 BKN100 BKN120 69.8 60.8 73% 29.98 0.0
08 20:15 SE 5 10.00 Partly Cloudy FEW036 SCT100 69.8 60.8 73% 29.97 0.0
08 19:55 SE 8 10.00 Fair CLR 69.8 60.8 76.6 70.5 73% 29.97 0.0
08 19:35 SE 7 10.00 Fair CLR 71.6 60.8 69% 29.95 0.0
08 19:15 SE 3 10.00 Fair CLR 73.4 60.8 65% 29.95 0.0
08 18:55 SE 5 10.00 Fair CLR 73.4 60.8 65% 29.94 0.0
08 18:15 E 2 10.00 Fair CLR 75.2 59 57% 78 29.93 0.0
08 17:55 Vrbl 3 10.00 Fair CLR 75.2 59 57% 78 29.93 0.0
08 17:35 SE 3 10.00 Fair CLR 75.2 59 57% 78 29.94 0.0
08 17:15 Vrbl 3 10.00 Fair CLR 75.2 59 57% 78 29.94 0.0
08 16:55 Vrbl 5 10.00 Fair CLR 75.2 57.2 54% 78 29.93 0.0
08 16:35 SE 6 10.00 Fair CLR 75.2 57.2 54% 78 29.95 0.0
08 16:15 Vrbl 7 10.00 Fair CLR 75.2 57.2 54% 78 29.96 0.0
08 15:55 SE 6 10.00 Fair CLR 75.2 57.2 54% 78 29.98 0.0
08 15:35 Vrbl 5 10.00 Fair CLR 75.2 57.2 54% 78 29.97 0.0
08 15:15 Vrbl 3 10.00 Fair CLR 75.2 55.4 50% 78 29.98 0.0
08 14:55 Vrbl 3 10.00 Fair CLR 75.2 55.4 50% 78 29.98 0.0
08 14:35 E 6 10.00 Fair CLR 77 55.4 47% 79 29.98 0.0
08 14:15 Vrbl 2 10.00 Fair CLR 75.2 55.4 50% 78 30 0.0
08 13:55 Vrbl 2 10.00 Fair CLR 75.2 55.4 76.5 63.1 50% 78 30 0.0
08 13:35 NE 10 10.00 Fair CLR 75.2 55.4 50% 78 30.01 0.0
08 13:15 E 7 10.00 Fair CLR 73.4 55.4 53% 30.02 0.0
08 12:55 Vrbl 5 10.00 Fair CLR 73.4 55.4 53% 30.02 0.0
08 12:35 SE 7 10.00 Fair CLR 73.4 55.4 53% 30.02 0.0
08 12:15 Vrbl 7 10.00 Fair CLR 73.4 55.4 53% 30.03 0.0
08 11:55 E 7 10.00 Fair CLR 71.6 53.6 53% 30.04 0.0
08 11:35 E 8 10.00 Fair CLR 69.8 53.6 57% 30.05 0.0
08 11:15 NE 8 10.00 Fair CLR 68 53.6 60% 30.04 0.0
08 10:55 E 8 10.00 Fair CLR 68 51.8 56% 30.05 0.0
08 10:35 E 10 10.00 Fair CLR 68 51.8 56% 30.05 0.0
08 10:15 E 9 G 18 10.00 Fair CLR 68 53.6 60% 30.04 0.0
08 09:55 NE 10 10.00 Fair CLR 66.2 53.6 64% 30.04 0.0
08 09:15 NE 10 10.00 Fair CLR 64.4 55.4 73% 30.03 0.0
08 08:35 NE 7 10.00 Fair CLR 64.4 57.2 78% 30.02 0.0
08 08:16 NE 5 10.00 Fair CLR 64.4 57.2 78% 30.02 0.0
08 07:55 Vrbl 3 10.00 Fair CLR 62.6 57.2 69.4 59.4 83% 30 0.0
08 07:35 N 3 10.00 Fair CLR 62.6 57.2 83% 29.99 0.0
08 07:15 Vrbl 2 10.00 Fair CLR 62.6 57.2 83% 29.98 0.0
08 06:55 N 5 10.00 Fair CLR 60.8 59 94% 29.97 0.0
08 06:35 Calm 10.00 A Few Clouds FEW035 60.8 59 94% 29.97 0.0
08 06:15 W 1 10.00 Partly Cloudy SCT035 60.8 59 94% 29.96 0.0
08 05:55 W 3 10.00 Partly Cloudy SCT035 62.6 60.8 94% 29.96 0.0
08 05:35 Vrbl 1 10.00 Fair CLR 62.6 60.8 94% 29.95 0.0
08 05:15 Vrbl 1 10.00 Fair CLR 62.6 60.8 94% 29.94 0.0
08 04:55 Vrbl 2 10.00 Fair CLR 66.2 57.2 73% 29.94 0.0
08 04:35 Vrbl 3 10.00 Fair CLR 66.2 59 78% 29.93 0.0
08 04:15 Vrbl 2 10.00 A Few Clouds FEW043 66.2 59 78% 29.93 0.0
08 03:35 Calm 10.00 Fair CLR 68 59 73% 29.93 0.0
08 03:15 Vrbl 3 10.00 A Few Clouds FEW037 68 59 73% 29.94 0.0
08 02:55 NW 3 10.00 A Few Clouds FEW030 68 60.8 78% 29.94 0.0
08 02:35 NW 5 10.00 Mostly Cloudy BKN032 68 60.8 78% 29.94 0.0
08 02:15 NW 5 10.00 Partly Cloudy SCT030 68 60.8 78% 29.95 0.0
08 01:55 NW 7 10.00 A Few Clouds FEW028 69.8 60.8 78.6 68.2 73% 29.95 0.0
08 01:35 NW 8 10.00 Fair CLR 69.8 62.6 78% 29.95 0.0
08 01:15 N 7 10.00 A Few Clouds FEW024 FEW030 69.8 66.2 88% 29.94 0.0
08 00:55 NW 7 10.00 Mostly Cloudy SCT018 BKN023 BKN028 71.6 69.8 94% 29.93 0.0
08 00:35 NW 9 10.00 Mostly Cloudy SCT018 BKN028 BKN034 69.8 69.8 100% 29.93 0.0
08 00:15 Vrbl 2 10.00 Partly Cloudy FEW038 SCT049 69.8 69.8 100% 29.91 0.0
07 23:55 W 1 5.00 Fog/Mist BKN049 69.8 69.8 100% 29.91 0.0
07 23:35 Vrbl 2 8.00 Mostly Cloudy BKN047 69.8 69.8 100% 29.92 0.0
07 22:55 W 2 10.00 Fair CLR 69.8 69.8 100% 29.9 0.0
07 22:35 W 3 10.00 Fair CLR 71.6 71.6 100% 29.9 0.0
07 22:15 Vrbl 5 10.00 A Few Clouds FEW043 71.6 71.6 100% 29.89 0.0
07 21:55 SW 2 10.00 Partly Cloudy SCT025 SCT043 71.6 71.6 100% 29.89 0.0
07 21:35 W 5 10.00 Partly Cloudy SCT025 73.4 71.6 94% 29.89 0.0
07 21:15 Vrbl 5 10.00 Partly Cloudy SCT025 SCT048 73.4 71.6 94% 29.87 0.0
07 20:55 W 5 10.00 Mostly Cloudy SCT025 BKN031 BKN055 77 71.6 83% 78 29.87 0.0
07 20:35 W 5 10.00 Overcast BKN024 BKN032 OVC043 77 71.6 83% 78 29.87 0.0
07 20:15 W 7 10.00 Overcast OVC024 78.8 71.6 79% 82 29.86 0.0
07 19:55 W 7 10.00 Mostly Cloudy SCT028 BKN035 BKN055 78.8 69.8 81.9 78.4 74% 81 29.86 0.0
07 19:35 W 9 10.00 Mostly Cloudy SCT030 BKN037 BKN044 78.8 69.8 74% 81 29.85 0.0
07 19:15 W 8 10.00 Overcast SCT030 BKN038 OVC060 78.8 69.8 74% 81 29.85 0.0
07 18:55 SW 7 10.00 Mostly Cloudy FEW029 SCT037 BKN060 80.6 69.8 70% 84 29.84 0.0
07 18:35 SW 8 10.00 Overcast BKN029 BKN035 OVC060 80.6 71.6 74% 85 29.84 0.0
07 18:15 W 6 10.00 Overcast BKN030 OVC035 78.8 71.6 79% 82 29.84 0.0
07 17:55 SW 8 10.00 Overcast BKN029 OVC037 80.6 71.6 74% 85 29.84 0.0
07 17:35 Vrbl 6 10.00 Overcast BKN029 OVC035 80.6 71.6 74% 85 29.84 0.0
07 17:15 W 12 G 18 10.00 Overcast OVC029 80.6 69.8 70% 84 29.84 0.0
07 16:55 W 12 G 24 10.00 Overcast OVC029 80.6 69.8 70% 84 29.83 0.0
07 16:35 SW 8 G 20 10.00 Overcast OVC031 80.6 69.8 70% 84 29.84 0.0
07 16:15 W 16 G 26 10.00 Mostly Cloudy BKN031 80.6 69.8 70% 84 29.84 0.0
07 15:35 W 16 G 26 10.00 A Few Clouds FEW029 FEW035 80.6 69.8 70% 84 29.85 0.0
07 15:15 SW 16 G 28 10.00 A Few Clouds FEW029 78.8 68 70% 81 29.86 0.0
07 14:55 W 14 G 23 10.00 Fair CLR 78.8 68 70% 81 29.85 0.0
07 14:35 SW 13 G 26 10.00 Fair CLR 78.8 68 70% 81 29.86 0.0
07 14:15 SW 14 G 25 10.00 A Few Clouds FEW050 78.8 68 70% 81 29.86 0.0
07 13:56 W 10 G 22 10.00 Mostly Cloudy BKN048 80.6 68 66% 83 29.86 0.0
07 13:15 SW 14 G 21 10.00 A Few Clouds FEW039 78.8 68 70% 81 29.86 0.0
07 12:55 SW 9 G 21 10.00 Fair CLR 78.8 68 70% 81 29.86 0.0
07 12:35 SW 9 G 16 10.00 Fair CLR 77 68 74% 79 29.87 0.0
07 11:55 W 9 10.00 Fair CLR 73.4 68 83% 29.9 0.0
07 11:35 W 10 G 17 10.00 Fair CLR 71.6 66.2 83% 29.9 0.0
Date Time (edt) Wind (mph) Vis. (mi.) Weather Sky Cond. Air Dwpt Max. Min. Relative Humidity Wind Chill (°F) Heat Index (°F) altimeter (in) sea level (mb) 1 hr 3 hr 6 hr
6 hour
Temperature (ºF) Pressure Precipitation (in)